sat.trackr.live / text

‹ back to catalog

CENTISPACE-2 S8

NORAD 68357 · 2026-060H

PAYLOAD ACTIVE UNKNOWN

§ Identity

Operator
Country
PRC
Launch date
2026-03-22
Launch site
YSLA
Launch vehicle
Mass (kg)
RCS (m²)

External: N2YO · Heavens-Above · Gunter

§ Orbital elements

Epoch: 2026-05-25T08:37:27.786432Z

Period
97.72 min
Inclination
54.9844°
Eccentricity
0.0012898
Mean motion
14.73562343 rev/d
Perigee alt
640.7 km
Apogee alt
658.8 km
Semi-major
7,027.9 km
B*
1.8840e-4
RAAN
129.0193°
Arg perigee
88.7969°
Mean anomaly
271.4507°
Rev number
940

§ Raw data

CENTISPACE-2 S81 68357U 26060H   26145.35934938  .00001029  00000+0  18840-3 0  99902 68357  54.9844 129.0193 0012898  88.7969 271.4507 14.73562343  9402

JSON: /api/v1/satellites/68357 · /tle

For live sub-satellite position, see the globe view (requires WebGL).

§ Visibility from observer

Set your observer location to see the next 7 days of passes ≥ 10°. The values pass through the URL so the page stays shareable.

No JS? Fill the form by hand. The geolocation button needs JavaScript.

§ Radio — SatNOGS DB

ModeDescriptionDownlinkUplink
FM S-band telemetry 2.214 GHz

1 transmitter · refreshed weekly from db.satnogs.org